Cando, ND

3:18 AM CST on February 13, 2016 (GMT -0600)
Cando

Weather History for K9D7 - May, 2013

Change the Weather History Date:

Tuesday, May 14, 2013

  Actual Average (KDVL) Record (KDVL)
Temperature  
Mean Temperature 58 °F -  
Max Temperature 69 °F 67 °F 90 °F (1977)
Min Temperature 48 °F 44 °F 26 °F (1983)
Degree Days  
Heating Degree Days 6    
Growing Degree Days 8 (Base 50)    
Moisture  
Dew Point 50 °F    
Average Humidity 68    
Maximum Humidity 100    
Minimum Humidity 38    
Precipitation  
Precipitation 0.21 in - - ()
Sea Level Pressure  
Sea Level Pressure 29.61 in    
Wind  
Wind Speed 16 mph (WNW)    
Max Wind Speed 37 mph    
Max Gust Speed 50 mph    
Visibility 10 miles    
Events Rain    
Averages and records for this station are not official NWS values.
T = Trace of Precipitation, MM = Missing Value Source: NWS Daily Summary

Daily Weather History Graph

Daily Weather History Graph

Search for Another Location

Airport or City:

Trip Planner

Search our weather history database for the weather conditions in past years. The results will help you decide how hot, cold, wet, or windy it might be!

Date:

Astronomy

May. 14, 2013 Rise Set
Actual Time 5:57 AM CDT 9:09 PM CDT
Civil Twilight 5:20 AM CDT 9:47 PM CDT
Nautical Twilight 4:31 AM CDT 10:36 PM CDT
Astronomical Twilight 3:29 AM CDT 11:39 PM CDT
Moon 9:39 AM CDT (5/14) 12:18 AM CDT (5/14)
Length of Visible Light 16h 27m
Length of Day
15h 12m
Waxing Crescent, 19% of the Moon is Illuminated
May 14
Waxing Crescent
May 17
First Quarter
May 24
Full
May 31
Last Quarter
Jun 8
New

Hourly Weather History & Observations

Time (CDT) Temp. Dew Point Humidity Pressure Visibility Wind Dir Wind Speed Gust Speed Precip Events Conditions
12:15 AM 55.4 °F 44.6 °F 67% 29.59 in 10.0 mi SSE 4.6 mph - N/A   Clear
12:35 AM 55.4 °F 44.6 °F 67% 29.58 in 10.0 mi SSE 6.9 mph - N/A   Clear
12:55 AM 53.6 °F 44.6 °F 72% 29.57 in 10.0 mi South 6.9 mph - N/A   Clear
1:15 AM 53.6 °F 46.4 °F 77% 29.57 in 10.0 mi South 5.8 mph - N/A   Clear
1:35 AM 57.2 °F 46.4 °F 67% 29.57 in 10.0 mi South 6.9 mph - N/A   Clear
1:55 AM 60.8 °F 46.4 °F 59% 29.57 in 10.0 mi SSW 9.2 mph - N/A   Partly Cloudy
2:15 AM 59.0 °F 46.4 °F 63% 29.60 in 10.0 mi WSW 18.4 mph - N/A   Scattered Clouds
2:35 AM 64.4 °F 48.2 °F 56% 29.53 in 10.0 mi SSW 9.2 mph - N/A   Mostly Cloudy
2:55 AM 64.4 °F 48.2 °F 56% 29.52 in 9.0 mi WNW 6.9 mph - N/A   Mostly Cloudy
3:15 AM 68.0 °F 50.0 °F 52% 29.54 in 10.0 mi NW 19.6 mph 26.5 mph N/A Rain Light Rain
3:35 AM 64.4 °F 53.6 °F 68% 29.57 in 9.0 mi NW 33.4 mph 46.0 mph 0.01 in Rain Light Rain
3:55 AM 62.6 °F 55.4 °F 77% 29.58 in 8.0 mi NW 26.5 mph 38.0 mph 0.13 in Rain Light Rain
4:15 AM 62.6 °F 55.4 °F 77% 29.59 in 10.0 mi NW 23.0 mph 36.8 mph N/A Rain Light Rain
4:35 AM 62.6 °F 57.2 °F 82% 29.60 in 10.0 mi NW 27.6 mph 36.8 mph N/A Rain Light Rain
4:55 AM 59.0 °F 59.0 °F 100% 29.65 in 5.0 mi NW 29.9 mph 40.3 mph 0.02 in Rain Light Rain
5:15 AM 59.0 °F 59.0 °F 100% 29.64 in 3.0 mi NW 12.7 mph 32.2 mph 0.04 in Rain Light Rain
5:35 AM 59.0 °F 59.0 °F 100% 29.64 in 10.0 mi NW 16.1 mph - 0.06 in Rain Light Rain
5:55 AM 57.2 °F 57.2 °F 100% 29.62 in 10.0 mi NW 10.4 mph - 0.06 in   Mostly Cloudy
6:15 AM 57.2 °F 57.2 °F 100% 29.59 in 10.0 mi North 5.8 mph - N/A   Scattered Clouds
6:35 AM 55.4 °F 55.4 °F 100% 29.56 in 10.0 mi SE 6.9 mph - N/A   Partly Cloudy
6:55 AM 55.4 °F 55.4 °F 100% 29.53 in 10.0 mi SE 9.2 mph - N/A   Clear
7:15 AM 57.2 °F 57.2 °F 100% 29.52 in 10.0 mi SSE 10.4 mph - N/A   Clear
7:35 AM 57.2 °F 57.2 °F 100% 29.52 in 10.0 mi South 10.4 mph - N/A   Clear
7:55 AM 59.0 °F 59.0 °F 100% 29.52 in 10.0 mi South 9.2 mph - N/A   Clear
8:15 AM 59.0 °F 59.0 °F 100% 29.52 in 10.0 mi SSW 10.4 mph - N/A   Clear
8:35 AM 62.6 °F 62.6 °F 100% 29.52 in 10.0 mi SSW 11.5 mph - N/A   Clear
8:55 AM 64.4 °F 62.6 °F 94% 29.52 in 10.0 mi SSW 12.7 mph - N/A   Clear
9:15 AM 66.2 °F 60.8 °F 83% 29.52 in 10.0 mi SSW 17.3 mph - N/A   Clear
9:35 AM 66.2 °F 60.8 °F 83% 29.52 in 10.0 mi SSW 18.4 mph - N/A   Clear
9:55 AM 68.0 °F 59.0 °F 73% 29.53 in 10.0 mi WSW 32.2 mph 39.1 mph N/A   Scattered Clouds
10:15 AM 64.4 °F 57.2 °F 77% 29.54 in 10.0 mi West 32.2 mph 40.3 mph N/A   Mostly Cloudy
10:35 AM 64.4 °F 55.4 °F 73% 29.54 in 10.0 mi West 26.5 mph 35.7 mph N/A   Overcast
10:55 AM 66.2 °F 51.8 °F 60% 29.54 in 10.0 mi West 28.8 mph 35.7 mph N/A   Mostly Cloudy
11:15 AM 66.2 °F 51.8 °F 60% 29.54 in 10.0 mi West 29.9 mph 39.1 mph N/A   Clear
11:35 AM 66.2 °F 48.2 °F 52% 29.54 in 10.0 mi West 36.8 mph 44.9 mph N/A   Clear
11:55 AM 66.2 °F 48.2 °F 52% 29.54 in 10.0 mi West 33.4 mph 41.4 mph N/A   Clear
12:15 PM 68.0 °F 48.2 °F 49% 29.54 in 10.0 mi West 27.6 mph 35.7 mph N/A   Clear
12:35 PM 68.0 °F 50.0 °F 52% 29.53 in 10.0 mi West 32.2 mph 39.1 mph N/A   Partly Cloudy
12:55 PM 68.0 °F 48.2 °F 49% 29.52 in 10.0 mi West 34.5 mph 44.9 mph N/A   Partly Cloudy
1:15 PM 68.0 °F 46.4 °F 46% 29.52 in 10.0 mi West 36.8 mph 49.5 mph N/A   Partly Cloudy
1:35 PM 66.2 °F 48.2 °F 52% 29.53 in 10.0 mi WNW 35.7 mph 46.0 mph N/A   Mostly Cloudy
1:55 PM 66.2 °F 48.2 °F 52% 29.55 in 10.0 mi West 34.5 mph 47.2 mph N/A   Scattered Clouds
2:15 PM 66.2 °F 48.2 °F 52% 29.55 in 10.0 mi WNW 35.7 mph 48.3 mph N/A   Mostly Cloudy
2:35 PM 66.2 °F 48.2 °F 52% 29.56 in 10.0 mi WNW 31.1 mph 43.7 mph N/A   Overcast
2:55 PM 64.4 °F 46.4 °F 52% 29.57 in 10.0 mi WNW 34.5 mph 41.4 mph N/A   Overcast
3:15 PM 64.4 °F 46.4 °F 52% 29.59 in 10.0 mi NW 31.1 mph 40.3 mph N/A   Overcast
3:35 PM 66.2 °F 48.2 °F 52% 29.60 in 10.0 mi NW 32.2 mph 40.3 mph N/A   Overcast
3:55 PM 64.4 °F 46.4 °F 52% 29.62 in 10.0 mi NNW 33.4 mph 46.0 mph N/A   Overcast
4:15 PM 64.4 °F 46.4 °F 52% 29.64 in 10.0 mi NNW 31.1 mph 44.9 mph N/A   Mostly Cloudy
4:35 PM 64.4 °F 46.4 °F 52% 29.65 in 10.0 mi NNW 36.8 mph 44.9 mph N/A   Overcast
4:55 PM 66.2 °F 44.6 °F 46% 29.65 in 10.0 mi NNW 33.4 mph 43.7 mph N/A   Overcast
5:15 PM 68.0 °F 44.6 °F 43% 29.66 in 10.0 mi NNW 32.2 mph 41.4 mph N/A   Mostly Cloudy
5:35 PM 68.0 °F 44.6 °F 43% 29.67 in 10.0 mi NW 25.3 mph 41.4 mph N/A   Scattered Clouds
5:55 PM 68.0 °F 42.8 °F 40% 29.67 in 10.0 mi NW 25.3 mph 34.5 mph N/A   Partly Cloudy
6:15 PM 68.0 °F 44.6 °F 43% 29.68 in 10.0 mi NW 25.3 mph 33.4 mph N/A   Clear
6:35 PM 69.8 °F 42.8 °F 38% 29.68 in 10.0 mi NNW 23.0 mph 29.9 mph N/A   Partly Cloudy
6:55 PM 68.0 °F 44.6 °F 43% 29.68 in 10.0 mi NNW 17.3 mph 23.0 mph N/A   Partly Cloudy
7:15 PM 68.0 °F 44.6 °F 43% 29.69 in 10.0 mi NNW 13.8 mph - N/A   Mostly Cloudy
7:35 PM 68.0 °F 44.6 °F 43% 29.70 in 10.0 mi NNW 15.0 mph 20.7 mph N/A   Mostly Cloudy
7:55 PM 68.0 °F 42.8 °F 40% 29.70 in 10.0 mi NW 15.0 mph - N/A   Partly Cloudy
8:15 PM 64.4 °F 44.6 °F 49% 29.71 in 10.0 mi NNW 9.2 mph - N/A   Partly Cloudy
8:35 PM 64.4 °F 46.4 °F 52% 29.71 in 10.0 mi NW 6.9 mph - N/A   Partly Cloudy
8:55 PM 62.6 °F 44.6 °F 52% 29.72 in 10.0 mi NW 6.9 mph - N/A   Clear
9:15 PM 59.0 °F 44.6 °F 59% 29.72 in 10.0 mi NW 6.9 mph - N/A   Clear
9:35 PM 57.2 °F 46.4 °F 67% 29.73 in 10.0 mi NW 6.9 mph - N/A   Clear
9:55 PM 57.2 °F 46.4 °F 67% 29.74 in 10.0 mi WNW 5.8 mph - N/A   Clear
10:15 PM 51.8 °F 46.4 °F 82% 29.75 in 10.0 mi WSW 6.9 mph - N/A   Clear
10:35 PM 51.8 °F 48.2 °F 88% 29.76 in 10.0 mi WSW 8.1 mph - N/A   Clear
10:55 PM 50.0 °F 46.4 °F 87% 29.76 in 10.0 mi West 8.1 mph - N/A   Clear
11:15 PM 48.2 °F 46.4 °F 93% 29.77 in 10.0 mi WSW 8.1 mph - N/A   Clear
11:35 PM 48.2 °F 46.4 °F 93% 29.77 in 10.0 mi West 8.1 mph - N/A   Clear
11:55 PM 48.2 °F 46.4 °F 93% 29.77 in 10.0 mi West 6.9 mph - N/A   Scattered Clouds